TimeMST,TemperatureF,Dew PointF,Humidity,Sea Level PressureIn,VisibilityMPH,Wind Direction,Wind SpeedMPH,Gust SpeedMPH,PrecipitationIn,Events,Conditions,WindDirDegrees,DateUTC
12:53 AM,8.1,3.0,80,30.14,10.0,NNW,5.8,-,N/A,,Clear,330,2012-12-22 07:53:00
1:53 AM,9.0,3.9,80,30.14,10.0,Calm,Calm,-,N/A,,Clear,0,2012-12-22 08:53:00
2:53 AM,6.1,1.9,83,30.16,10.0,NNW,3.5,-,N/A,,Clear,330,2012-12-22 09:53:00
3:53 AM,6.1,1.9,83,30.16,10.0,SSW,3.5,-,N/A,,Clear,200,2012-12-22 10:53:00
4:53 AM,6.1,1.9,83,30.18,10.0,Calm,Calm,-,N/A,,Clear,0,2012-12-22 11:53:00
5:53 AM,3.9,-0.0,84,30.21,10.0,Calm,Calm,-,N/A,,Clear,0,2012-12-22 12:53:00
6:53 AM,3.9,-0.0,84,30.23,10.0,Calm,Calm,-,N/A,,Clear,0,2012-12-22 13:53:00
7:53 AM,3.9,1.0,88,30.22,10.0,ESE,3.5,-,N/A,,Clear,120,2012-12-22 14:53:00
8:53 AM,7.0,3.0,84,30.20,10.0,Calm,Calm,-,N/A,,Clear,0,2012-12-22 15:53:00
9:53 AM,10.9,5.0,77,30.21,10.0,Calm,Calm,-,N/A,,Clear,0,2012-12-22 16:53:00
10:53 AM,19.0,8.1,62,30.17,10.0,Calm,Calm,-,N/A,,Clear,0,2012-12-22 17:53:00
11:53 AM,23.0,10.0,58,30.12,10.0,Calm,Calm,-,N/A,,Clear,0,2012-12-22 18:53:00
12:53 PM,26.1,10.9,53,30.08,10.0,NNW,4.6,-,N/A,,Clear,340,2012-12-22 19:53:00
1:53 PM,32.0,12.0,44,30.02,10.0,Calm,Calm,-,N/A,,Clear,0,2012-12-22 20:53:00
2:53 PM,32.0,12.9,45,29.99,10.0,NW,4.6,-,N/A,,Clear,310,2012-12-22 21:53:00
3:53 PM,32.0,12.9,45,29.96,10.0,NW,4.6,-,N/A,,Clear,320,2012-12-22 22:53:00
4:53 PM,24.1,10.9,57,29.98,10.0,NW,4.6,-,N/A,,Clear,320,2012-12-22 23:53:00
5:53 PM,21.0,10.0,63,29.98,10.0,Calm,Calm,-,N/A,,Clear,0,2012-12-23 00:53:00
6:53 PM,18.0,9.0,68,29.98,10.0,Calm,Calm,-,N/A,,Clear,0,2012-12-23 01:53:00
7:53 PM,23.0,10.0,58,29.95,10.0,ESE,4.6,-,N/A,,Clear,110,2012-12-23 02:53:00
8:53 PM,28.0,10.0,47,29.93,10.0,SSE,5.8,-,N/A,,Clear,160,2012-12-23 03:53:00
9:53 PM,27.0,10.0,49,29.92,10.0,SE,4.6,-,N/A,,Clear,140,2012-12-23 04:53:00
10:53 PM,28.9,10.0,45,29.90,10.0,Calm,Calm,-,N/A,,Clear,0,2012-12-23 05:53:00
11:53 PM,24.1,10.9,57,29.90,10.0,West,3.5,-,N/A,,Scattered Clouds,280,2012-12-23 06:53:00